Вернуться в каталог

FENGYUN 1C DEB

АктивенPO
NORAD 31198·DEBRIS·🇨🇳 China

Запущен May 10, 1999 с Taiyuan Satellite Launch Center

Loading…

Ближайшие Пролёты (ближайшие 24 часа)

TLE

СвежийSource: Space-Track

Эпоха: Sep 13, 2026, 23:07 UTC

1 31198U 99025BKC 26256.96328833  .00000037  00000-0  67706-4 0  9990
2 31198  98.6091 339.5241 0203409 332.7311  26.3276 13.75583303665373

Отслеживайте FENGYUN 1C DEB в реальном времени с AllMySat

Download on the App Store